Flag for Poland Weather past 2 weeks in Bydgoszcz, Poland

Now
54 °F

Overcast.


Feels Like: 54 °F
Forecast: 53 / 71 °F
Wind: 2 mph from Northeast

Location: Torun

Current Time: Sep 2, 2014 at 7:06:46 AM

Latest Report: Sep 2, 2014 at 6:00 AM


Visibility: 28 mi

Pressure: 30.11 "Hg

Humidity: 82%

Dew point: 49 °F

Location of BydgoszczLocation

Historic Weather in Bydgoszcz — Graph

°F

Bydgoszcz temperature yesterday

Maximum temperature yesterday: 65 °F (at 4:00 PM)
Minimum temperature yesterday: 54 °F (at 10:00 AM)
Average temperature yesterday: 60 °F

Past Weeks' High & Low Weather Summary

 TemperatureHumidityPressure
High74 °F (Aug 29, 2:00 PM)99% (Aug 22, 7:00 AM)30.10 "Hg (Aug 22, 7:00 AM)
Low41 °F (Aug 22, 6:00 AM)30% (Aug 22, 5:00 PM)29.66 "Hg (Aug 18, 6:00 PM)
Average59 °F73%29.91 "Hg
* Reported Aug 18 5:00 AM — Sep 2 5:00 AM, Bydgoszcz, Weather by CustomWeather, © 2014

Note: Actual official high and low records may vary slightly from our data, if they occured in-between our weather recording intervals... More about our weather records

Advertising

Bydgoszcz weather history for previous 24 hours

 ConditionsComfort  
Time TempWeatherWind HumidityBarometerVisibility
5:00 AM
Sep 2
55 °FOvercast.1 mph82%30.10 "Hg31 mi
4:00 AM55 °FOvercast.2 mph82%30.10 "Hg28 mi
3:00 AM56 °FOvercast.2 mph82%30.09 "Hg28 mi
2:00 AM56 °FOvercast.1 mph83%30.10 "Hg31 mi
1:00 AM56 °FOvercast.1 mph82%30.10 "Hg31 mi
12:00 AM57 °FOvercast.1 mph81%30.09 "Hg31 mi
11:00 PM
Sep 1
58 °FOvercast.1 mph77%30.09 "Hg31 mi
10:00 PM59 °FOvercast.2 mph74%30.09 "Hg31 mi
9:00 PM60 °FOvercast.2 mph71%30.07 "Hg31 mi
8:00 PM61 °FOvercast.2 mph71%30.06 "Hg31 mi
7:00 PM63 °FOvercast.2 mph68%30.06 "Hg31 mi
6:00 PM64 °FOvercast.2 mph65%30.05 "Hg31 mi
5:00 PM64 °FOvercast.2 mph66%30.04 "Hg31 mi
4:00 PM65 °FOvercast.3 mph68%30.04 "Hg28 mi
3:00 PM64 °FOvercast.2 mph71%30.04 "Hg22 mi
2:00 PM63 °FOvercast.2 mph75%30.04 "Hg25 mi
1:00 PM60 °FOvercast.1 mph85%30.04 "Hg25 mi
12:00 PM58 °FOvercast.2 mph89%30.04 "Hg16 mi
11:00 AM56 °FSprinkles. Overcast.2 mph93%30.03 "Hg9 mi
10:00 AM54 °FRain showers. Overcast.3 mph93%30.02 "Hg3 mi
9:00 AM56 °FLow clouds.3 mph87%30.01 "Hg16 mi
8:00 AM56 °FLow clouds.3 mph86%29.98 "Hg31 mi
7:00 AM57 °FOvercast.5 mph88%29.96 "Hg12 mi
Weather by CustomWeather, © 2014

See weather overviewHow to use our weather pages